This demonstration page uses our WeatherBlox Daily Observations layout. Learn more.

Left ArrowRight Arrow

40.92945, -100.16068

Hourly Observations for February 16, 2018

Temp ( °F °C ) Dew Point ( °F °C ) Humidity (%) Winds ( mph kmh ) Pressure ( in mb ) Visibility ( mi km ) Precip ( " mm )
12:15 am 00:15 Cloudy 19 -7 13 -10.5 76 76 N 22 35 30.53 1034 10 16 N/A
12:35 am 00:35 Cloudy 19 -7 13 -10.6 76 76 NNW 23 37 30.53 1034 10 16 N/A
12:55 am 00:55 Cloudy 19 -7.5 12 -11 76 76 NNW 23 37 30.59 1036 10 16 N/A
1:15 am 01:15 Cloudy 18 -7.6 12 -11.1 76 76 N 20 31 30.59 1036 10 16 N/A
1:35 am 01:35 Cloudy with Light Snow 18 -7.7 12 -11.1 77 77 N 17 28 30.59 1036 10 16 N/A
1:55 am 01:55 Cloudy 18 -7.7 12 -11 77 77 N 21 33 30.59 1036 10 16 N/A
2:15 am 02:15 Cloudy with Light Snow 18 -7.8 12 -11.3 76 76 NNW 15 24 30.59 1036 10 16 N/A
2:35 am 02:35 Cloudy with Light Snow 18 -7.9 12 -11.3 77 77 NNW 15 24 30.59 1036 10 16 N/A
2:55 am 02:55 Cloudy 17 -8.5 11 -11.8 77 77 N 13 20 30.59 1036 10 16 N/A
3:15 am 03:15 Cloudy with Light Snow 17 -8.3 11 -11.7 77 77 NNW 13 20 30.59 1036 10 16 N/A
3:35 am 03:35 Cloudy 17 -8.6 10 -12 77 77 NNW 12 19 30.59 1036 10 16 N/A
3:55 am 03:55 Mostly Cloudy 16 -9 10 -12.5 76 76 NNW 12 19 30.59 1036 10 16 N/A
4:15 am 04:15 Partly Cloudy 15 -9.5 9 -12.7 78 78 NNW 10 17 30.59 1036 10 16 N/A
4:35 am 04:35 Clear 15 -9.7 9 -13 77 77 NW 10 17 30.59 1036 10 16 N/A
4:55 am 04:55 Clear 14 -10.1 8 -13.1 79 79 NNW 7 11 30.59 1036 10 16 N/A
5:15 am 05:15 Clear 13 -10.5 8 -13.3 80 80 NW 5 7 30.62 1037 10 16 N/A
5:35 am 05:35 Clear 13 -10.7 8 -13.2 82 82 WNW 5 7 30.62 1037 10 16 N/A
5:55 am 05:55 Clear 13 -10.7 8 -13.3 81 81 WNW 6 9 30.62 1037 10 16 N/A
6:15 am 06:15 Clear 13 -10.6 8 -13.5 79 79 WNW 5 7 30.62 1037 10 16 N/A
6:35 am 06:35 Clear 13 -10.7 8 -13.5 80 80 W 6 9 30.62 1037 10 16 N/A
6:55 am 06:55 Clear 12 -11 7 -13.7 81 81 W 5 7 30.62 1037 10 16 N/A
7:15 am 07:15 Clear 12 -11 8 -13.6 81 81 WNW 6 9 30.62 1037 10 16 N/A
7:35 am 07:35 Sunny 12 -11.3 7 -14 81 81 W 5 7 30.62 1037 10 16 N/A
7:55 am 07:55 Sunny 12 -10.9 8 -13.5 81 81 WNW 3 6 30.62 1037 10 16 N/A
8:15 am 08:15 Sunny 13 -10.6 8 -13.4 80 80 WSW 3 6 30.62 1037 10 16 N/A
8:35 am 08:35 Sunny 14 -10 9 -13 79 79 WSW 3 6 30.59 1036 10 16 N/A
8:55 am 08:55 Sunny 16 -9.1 9 -12.7 75 75 SW 5 7 30.59 1036 10 16 N/A
9:15 am 09:15 Sunny 17 -8.5 10 -12.4 74 74 SW 7 11 30.59 1036 10 16 N/A
9:35 am 09:35 Sunny 18 -7.8 10 -12.1 72 72 WSW 5 7 30.59 1036 10 16 N/A
9:55 am 09:55 Sunny 19 -7.2 10 -12.2 68 68 WSW 6 9 30.56 1035 10 16 N/A
10:15 am 10:15 Sunny 20 -6.5 11 -11.8 66 66 SW 7 11 30.56 1035 10 16 N/A
10:35 am 10:35 Sunny 21 -5.9 11 -11.4 65 65 SW 8 13 30.56 1035 10 16 N/A
10:55 am 10:55 Sunny 23 -5.1 12 -11 64 64 SSW 9 15 30.53 1034 10 16 N/A
11:15 am 11:15 Sunny 24 -4.3 14 -10.1 64 64 SW 10 17 30.50 1033 10 16 N/A
11:35 am 11:35 Sunny 25 -4 14 -9.9 64 64 SW 9 15 30.50 1033 10 16 N/A
11:55 am 11:55 Sunny 26 -3.2 15 -9.2 64 64 SSW 10 17 30.48 1032 10 16 N/A
12:15 pm 12:15 Sunny 27 -2.6 16 -8.8 63 63 SW 10 17 30.48 1032 10 16 N/A
12:35 pm 12:35 Sunny 28 -2 17 -8.2 63 63 SW 9 15 30.45 1031 10 16 N/A
12:55 pm 12:55 Sunny 29 -1.5 18 -7.9 62 62 SW 13 20 30.42 1030 10 16 N/A
1:15 pm 13:15 Sunny 30 -1 18 -7.6 61 61 SSW 9 15 30.39 1029 10 16 N/A
1:35 pm 13:35 Sunny 31 -0.7 18 -7.7 59 59 SSW 13 20 30.36 1028 10 16 N/A
1:55 pm 13:55 Sunny 32 -0.2 19 -7.3 59 59 SSW 13 20 30.33 1027 10 16 N/A
2:15 pm 14:15 Sunny 32 undefined 19 -7.3 58 58 SSW 9 15 30.30 1026 10 16 N/A
2:35 pm 14:35 Sunny 33 0.3 20 -6.5 61 61 SSW 14 22 30.27 1025 10 16 N/A
2:55 pm 14:55 Sunny 33 0.6 20 -6.6 59 59 SSW 16 26 30.27 1025 10 16 N/A
3:15 pm 15:15 Sunny 33 0.6 20 -6.5 59 59 SSW 16 26 30.24 1024 10 16 N/A
3:35 pm 15:35 Sunny 34 1.2 22 -5.7 60 60 S 15 24 30.21 1023 10 16 N/A
3:55 pm 15:55 Sunny 35 1.9 22 -5.5 58 58 S 20 31 30.18 1022 10 16 N/A
4:15 pm 16:15 Sunny 35 1.8 21 -5.9 57 57 SSW 16 26 30.18 1022 10 16 N/A
4:35 pm 16:35 Sunny 35 1.8 21 -6 57 57 S 16 26 30.18 1022 10 16 N/A
4:55 pm 16:55 Sunny 35 1.7 22 -5.7 58 58 S 14 22 30.15 1021 10 16 N/A
5:15 pm 17:15 Sunny 35 1.9 22 -5.6 58 58 S 18 30 30.12 1020 10 16 N/A
5:35 pm 17:35 Sunny 34 1.2 21 -6.1 59 59 S 15 24 30.12 1020 10 16 N/A
5:55 pm 17:55 Sunny 34 1 21 -5.9 60 60 S 14 22 30.12 1020 10 16 N/A
6:15 pm 18:15 Clear 33 0.5 21 -6.2 61 61 S 13 20 30.15 1021 10 16 N/A
6:35 pm 18:35 Clear 32 0.1 20 -6.5 62 62 SSE 10 17 30.15 1021 10 16 N/A
6:55 pm 18:55 Clear 32 -0.2 21 -6.1 65 65 SSE 10 17 30.15 1021 10 16 N/A
7:15 pm 19:15 Clear 31 -0.7 21 -6 68 68 SSE 9 15 30.15 1021 10 16 N/A
7:35 pm 19:35 Clear 30 -1 21 -6 69 69 SSE 9 15 30.15 1021 10 16 N/A
7:55 pm 19:55 Clear 30 -1 21 -6.2 68 68 SE 7 11 30.12 1020 10 16 N/A
8:15 pm 20:15 Clear 30 -1.3 21 -6 71 71 SSE 10 17 30.12 1020 10 16 N/A
8:35 pm 20:35 Clear 30 -1 21 -6.1 69 69 SSE 10 17 30.12 1020 10 16 N/A
8:55 pm 20:55 Clear 30 -1 21 -6.3 68 68 SE 8 13 30.12 1020 10 16 N/A
9:15 pm 21:15 Clear 30 -1.1 20 -6.5 67 67 S 12 19 30.09 1019 10 16 N/A
9:35 pm 21:35 Clear 30 -1 20 -6.5 67 67 S 12 19 30.09 1019 10 16 N/A
9:55 pm 21:55 Clear 30 -1 20 -6.6 66 66 SSE 10 17 30.09 1019 10 16 N/A
10:15 pm 22:15 Clear 29 -1.4 20 -6.6 68 68 S 9 15 30.09 1019 10 16 N/A
10:35 pm 22:35 Clear 30 -1.1 20 -6.7 66 66 SSE 9 15 30.06 1018 10 16 N/A
10:55 pm 22:55 Clear 30 -1.2 20 -6.8 66 66 SSE 15 24 30.03 1017 10 16 N/A
11:15 pm 23:15 Clear 30 -1.1 20 -6.7 66 66 SSE 9 15 30.03 1017 10 16 N/A
11:35 pm 23:35 Clear 30 -1.1 20 -6.7 66 66 S 9 15 30.03 1017 10 16 N/A
11:55 pm 23:55 Clear 30 -1.1 20 -6.7 66 66 S 12 19 30.03 1017 10 16 N/A

Powered by AerisWeather